Total_Precipitation_Accumulation
1.53 1.63 1.63 1.60 1.63 1.64 1.52 1.34 1.27 1.25 1.24 1.29 1.38 1.45 1.42 1.43 1.52 1.59 1.58 1.80 1.90 1.88 1.84 1.83 1.77 1.78 1.75 1.69 1.77 1.90 2.04 2.05 1.75 1.42 1.44 1.45 1.42 1.31 1.27 1.17 1.05 0.98 0.82
1.43 1.62 1.70 1.66 1.67 1.62 1.45 1.29 1.24 1.26 1.30 1.33 1.41 1.43 1.32 1.30 1.43 1.48 1.52 1.66 1.74 1.73 1.68 1.69 1.55 1.56 1.60 1.54 1.64 1.71 1.81 2.00 1.95 1.74 1.76 1.78 1.74 1.61 1.55 1.48 1.31 1.08 0.87
1.37 1.71 1.88 1.85 1.77 1.67 1.49 1.29 1.21 1.23 1.30 1.31 1.32 1.34 1.37 1.47 1.54 1.53 1.50 1.47 1.48 1.53 1.67 1.75 1.59 1.57 1.52 1.52 1.53 1.51 1.58 1.72 1.84 1.81 1.81 1.88 1.84 1.78 1.66 1.49 1.37 1.22 0.96
1.24 1.48 1.59 1.50 1.45 1.41 1.33 1.22 1.15 1.16 1.23 1.26 1.28 1.29 1.35 1.47 1.50 1.53 1.56 1.49 1.41 1.40 1.47 1.53 1.52 1.52 1.49 1.56 1.52 1.50 1.51 1.60 1.70 1.73 1.76 1.89 1.89 1.80 1.79 1.61 1.58 1.44 1.27
0.99 1.09 1.20 1.20 1.17 1.14 1.15 1.15 1.13 1.22 1.25 1.32 1.36 1.36 1.31 1.34 1.28 1.28 1.29 1.27 1.31 1.26 1.19 1.20 1.23 1.32 1.32 1.31 1.24 1.36 1.48 1.52 1.55 1.58 1.62 1.79 1.98 2.03 1.86 1.76 1.82 1.78 1.62
0.87 0.97 1.11 1.21 1.20 1.14 1.12 1.14 1.12 1.19 1.25 1.32 1.31 1.37 1.35 1.13 1.20 1.19 1.20 1.32 1.38 1.34 1.27 1.19 1.15 1.13 1.06 1.02 1.00 1.07 1.26 1.38 1.42 1.49 1.52 1.66 1.87 2.07 2.12 2.07 1.97 1.89 1.84
0.95 1.01 1.13 1.22 1.26 1.24 1.17 1.22 1.23 1.29 1.36 1.37 1.33 1.32 1.33 1.36 1.37 1.24 1.10 1.09 1.17 1.20 1.21 1.20 1.05 0.96 1.04 1.00 1.03 1.02 1.03 1.13 1.22 1.34 1.43 1.47 1.61 1.83 2.06 2.01 2.07 2.09 2.06
1.06 1.11 1.24 1.33 1.31 1.32 1.33 1.39 1.49 1.56 1.58 1.57 1.52 1.42 1.45 1.47 1.38 1.18 1.10 1.05 1.10 1.14 1.17 1.21 1.21 1.12 1.10 1.17 1.20 1.16 1.07 1.05 1.08 1.10 1.15 1.27 1.47 1.71 1.99 1.98 1.99 2.05 2.10
1.15 1.19 1.32 1.41 1.45 1.51 1.57 1.58 1.63 1.70 1.66 1.62 1.61 1.65 1.61 1.66 1.64 1.40 1.32 1.23 1.26 1.27 1.28 1.27 1.25 1.17 1.23 1.19 1.17 1.17 1.12 1.07 1.06 1.09 1.07 1.20 1.40 1.51 1.71 1.83 1.83 1.87 1.81
1.29 1.40 1.55 1.71 1.74 1.79 1.94 2.01 1.93 1.86 1.74 1.78 1.78 1.79 1.80 1.87 2.02 1.76 1.55 1.44 1.46 1.43 1.47 1.40 1.33 1.25 1.26 1.20 1.10 1.12 1.11 1.11 1.20 1.18 1.14 1.14 1.20 1.37 1.53 1.63 1.78 1.90 1.80
1.33 1.48 1.70 1.85 1.93 2.00 2.13 2.21 2.20 2.18 2.15 2.09 2.02 2.01 1.99 2.02 2.12 1.86 1.66 1.56 1.61 1.67 1.65 1.52 1.49 1.44 1.27 1.24 1.19 1.18 1.23 1.24 1.29 1.30 1.27 1.26 1.29 1.37 1.44 1.52 1.71 1.87 1.86
1.33 1.45 1.58 1.72 1.76 1.84 2.06 2.16 2.24 2.27 2.24 2.16 2.10 1.98 1.99 1.97 1.90 1.74 1.58 1.50 1.60 1.76 1.82 1.71 1.61 1.51 1.29 1.23 1.16 1.19 1.21 1.11 1.10 1.21 1.24 1.24 1.24 1.23 1.28 1.42 1.57 1.64 1.69
1.40 1.53 1.65 1.74 1.81 1.90 1.95 1.94 2.03 2.11 2.11 2.04 2.02 1.96 1.93 1.93 1.90 1.66 1.42 1.32 1.33 1.41 1.58 1.66 1.53 1.39 1.22 1.09 1.07 1.05 0.96 0.86 0.90 0.97 0.99 0.98 0.97 1.01 1.14 1.30 1.47 1.53 1.49
1.49 1.54 1.61 1.73 1.76 1.79 1.90 1.98 2.04 2.15 2.24 2.15 2.04 1.96 1.91 1.86 1.75 1.56 1.37 1.27 1.30 1.36 1.46 1.52 1.39 1.27 1.12 1.04 0.98 0.90 0.84 0.88 0.92 0.93 0.94 0.97 1.01 1.07 1.11 1.17 1.27 1.37 1.40
1.37 1.43 1.49 1.53 1.61 1.68 1.73 1.81 1.82 1.90 1.89 1.86 1.81 1.80 1.78 1.73 1.56 1.47 1.35 1.24 1.28 1.39 1.44 1.50 1.40 1.35 1.28 1.20 1.12 1.06 1.04 1.04 0.99 0.96 1.01 1.02 1.02 1.07 1.08 1.09 1.21 1.23 1.18
1.44 1.46 1.41 1.39 1.45 1.50 1.53 1.52 1.49 1.42 1.39 1.35 1.35 1.35 1.33 1.27 1.19 1.07 1.03 1.03 1.07 1.21 1.28 1.45 1.51 1.48 1.44 1.37 1.25 1.15 1.10 1.06 1.00 1.01 1.04 1.05 1.04 1.06 1.11 1.10 1.15 1.18 1.10
1.32 1.37 1.35 1.34 1.40 1.41 1.43 1.45 1.47 1.40 1.28 1.20 1.17 1.15 1.16 1.13 1.07 1.04 1.04 1.08 1.08 1.12 1.17 1.33 1.39 1.35 1.32 1.27 1.16 1.04 0.99 1.01 1.08 1.09 1.11 1.10 1.14 1.15 1.20 1.17 1.14 1.18 1.15
1.14 1.20 1.28 1.36 1.41 1.47 1.50 1.54 1.62 1.68 1.61 1.43 1.25 1.15 1.07 1.01 0.94 0.94 0.97 0.97 0.97 0.99 1.09 1.21 1.23 1.17 1.15 1.12 1.09 1.03 1.01 1.07 1.16 1.14 1.13 1.14 1.15 1.16 1.18 1.19 1.15 1.12 1.11
1.04 1.05 1.07 1.14 1.22 1.30 1.32 1.37 1.47 1.56 1.60 1.50 1.34 1.19 1.05 0.97 0.88 0.84 0.83 0.82 0.88 0.98 1.11 1.14 1.15 1.15 1.08 1.05 1.04 1.00 0.98 1.01 1.09 1.14 1.12 1.13 1.13 1.14 1.13 1.10 1.14 1.12 1.04
1.01 1.00 0.99 0.99 1.01 1.02 1.04 1.11 1.20 1.31 1.36 1.30 1.20 1.08 0.96 0.90 0.80 0.74 0.70 0.70 0.78 0.86 0.95 1.00 1.03 0.99 0.93 0.94 0.96 0.94 0.92 0.98 1.08 1.11 1.09 1.11 1.16 1.15 1.07 1.05 1.07 1.10 1.03
0.99 0.96 0.93 0.93 0.91 0.91 0.93 0.97 1.02 1.05 1.11 1.06 0.98 0.85 0.76 0.70 0.62 0.58 0.59 0.65 0.74 0.83 0.90 0.95 0.94 0.89 0.87 0.90 0.94 0.96 0.93 0.99 1.06 1.08 1.08 1.12 1.16 1.16 1.10 1.06 1.04 1.06 1.06
0.93 0.84 0.78 0.76 0.79 0.82 0.83 0.89 0.94 0.94 0.91 0.86 0.79 0.63 0.59 0.56 0.50 0.48 0.51 0.57 0.64 0.76 0.78 0.78 0.81 0.82 0.80 0.81 0.86 0.93 0.97 1.01 1.09 1.10 1.08 1.10 1.14 1.14 1.16 1.13 1.13 1.09 1.10
0.95 0.83 0.74 0.70 0.69 0.70 0.72 0.81 0.86 0.83 0.74 0.69 0.63 0.59 0.59 0.61 0.51 0.48 0.53 0.61 0.67 0.68 0.66 0.67 0.72 0.76 0.77 0.78 0.79 0.86 0.93 0.98 1.03 1.04 1.09 1.13 1.11 1.09 1.10 1.05 1.05 1.06 1.06
0.92 0.84 0.74 0.64 0.65 0.69 0.71 0.76 0.78 0.78 0.72 0.67 0.63 0.61 0.61 0.64 0.59 0.56 0.60 0.71 0.69 0.63 0.61 0.64 0.68 0.70 0.74 0.79 0.79 0.80 0.83 0.88 0.87 0.88 0.90 0.95 0.97 0.99 1.01 1.00 1.00 0.99 1.01
0.88 0.81 0.70 0.59 0.58 0.62 0.66 0.71 0.75 0.75 0.71 0.64 0.62 0.63 0.66 0.69 0.65 0.64 0.65 0.66 0.62 0.58 0.54 0.59 0.64 0.66 0.69 0.71 0.73 0.74 0.73 0.70 0.70 0.74 0.76 0.80 0.85 0.93 1.00 1.00 1.00 0.99 0.98
0.77 0.71 0.64 0.56 0.50 0.51 0.57 0.65 0.66 0.66 0.63 0.59 0.58 0.60 0.60 0.61 0.59 0.55 0.52 0.51 0.50 0.49 0.50 0.54 0.61 0.62 0.66 0.67 0.60 0.58 0.55 0.50 0.53 0.61 0.64 0.72 0.83 0.91 0.95 1.00 0.98 1.00 0.98